JI6FPP-13 Weather Reports


Display with metric or nautical units.
time (UTC)temp
F
wind
direction
speed
MPH
gust
MPH
rain 1hr
in
rain 24hr
in
rain mn
in
humidity
%
barometer
mb
20260505014619 75 237 2.0 3.0 0.00 0.00 0.00 14 1015.0
20260505013619 76 184 2.0 7.0 0.00 0.00 0.00 22 1015.0
20260505012619 74 180 1.0 6.0 0.00 0.00 0.00 25 1015.0
20260505011619 73 195 5.0 5.0 0.00 0.00 0.00 26 1015.0
20260505010619 72 180 2.0 5.0 0.00 0.00 0.00 27 1015.0
20260505005619 71 329 1.0 1.0 0.00 0.00 0.00 28 1015.0
20260505004620 71 213 2.0 2.0 0.00 0.00 0.00 31 1015.0
20260505003619 69 225 1.0 0.0 0.00 0.00 0.00 30 1015.0
20260505002619 71 80 0.0 6.0 0.00 0.00 0.00 32 1015.0
20260505001620 69 180 1.0 6.0 0.00 0.00 0.00 33 1015.0
20260505000618 69 187 0.0 6.0 0.00 0.00 0.00 34 1015.0
20260504235619 68 180 0.0 1.0 0.00 0.00 0.00 36 1015.0
20260504234619 65 180 1.0 1.0 0.00 0.00 0.00 37 1015.0
20260504233619 64 219 2.0 3.0 0.00 0.00 0.00 37 1014.0
20260504232619 64 0 0.0 0.0 0.00 0.00 0.00 41 1014.0
20260504231618 62 262 0.0 2.0 0.00 0.00 0.00 43 1014.0
20260504230618 60 204 1.0 2.0 0.00 0.00 0.00 46 1014.0
20260504225619 59 180 2.0 3.0 0.00 0.00 0.00 48 1014.0
20260504224619 58 180 1.0 2.0 0.00 0.00 0.00 51 1016.0
20260504223619 56 349 0.0 1.0 0.00 0.00 0.00 56 1015.0
20260504222619 55 180 0.0 1.0 0.00 0.00 0.00 61 1015.0
20260504221620 54 211 0.0 1.0 0.00 0.00 0.00 62 1015.0
20260504220619 53 192 1.0 2.0 0.00 0.00 0.00 62 1015.0
20260504215619 52 180 0.0 0.0 0.00 0.00 0.00 63 1015.0
20260504214618 52 180 0.0 0.0 0.00 0.00 0.00 65 1015.0
20260504213619 51 195 0.0 2.0 0.00 0.00 0.00 66 1015.0
20260504212620 50 180 0.0 0.0 0.00 0.00 0.00 66 1015.0
20260504211620 50 180 0.0 0.0 0.00 0.00 0.00 65 1014.0
20260504210619 49 180 0.0 0.0 0.00 0.00 0.00 64 1014.0
20260504205619 49 180 0.0 0.0 0.00 0.00 0.00 63 1014.0
20260504204619 49 180 0.0 0.0 0.00 0.00 0.00 63 1014.0
20260504203620 50 180 0.0 0.0 0.00 0.00 0.00 64 1014.0
20260504202620 50 180 0.0 0.0 0.00 0.00 0.00 64 1014.0
20260504201620 50 180 0.0 0.0 0.00 0.00 0.00 65 1014.0
20260504200620 50 180 0.0 0.0 0.00 0.00 0.00 65 1014.0
20260504195619 50 180 0.0 0.0 0.00 0.00 0.00 64 1014.0
20260504194620 50 180 0.0 0.0 0.00 0.00 0.00 62 1014.0
20260504193620 50 180 0.0 0.0 0.00 0.00 0.00 62 1014.0
20260504192618 50 180 0.0 0.0 0.00 0.00 0.00 62 1014.0
20260504191620 51 180 0.0 0.0 0.00 0.00 0.00 63 1013.0
20260504190620 51 180 0.0 0.0 0.00 0.00 0.00 64 1013.0
20260504185619 51 180 1.0 2.0 0.00 0.00 0.00 65 1013.0
20260504184619 51 180 0.0 0.0 0.00 0.00 0.00 63 1013.0
20260504183619 51 0 0.0 0.0 0.00 0.00 0.00 59 1013.0
20260504182620 51 0 0.0 0.0 0.00 0.00 0.00 59 1013.0
20260504181620 51 0 0.0 0.0 0.00 0.00 0.00 58 1013.0
20260504180620 51 0 0.0 0.0 0.00 0.00 0.00 59 1012.0
20260504175618 51 0 0.0 0.0 0.00 0.00 0.00 57 1012.0
20260504174619 51 0 0.0 0.0 0.00 0.00 0.00 57 1013.0
20260504173619 52 0 0.0 0.0 0.00 0.00 0.00 57 1012.0
20260504172619 52 0 0.0 0.0 0.00 0.00 0.00 55 1012.0
20260504171620 53 0 0.0 0.0 0.00 0.00 0.00 55 1012.0
20260504170620 53 180 0.0 0.0 0.00 0.00 0.00 54 1012.0
20260504150619 55 180 0.0 0.0 0.00 0.00 0.00 52 1013.0
20260504140620 55 0 0.0 0.0 0.00 0.00 0.00 48 1013.0
20260504130619 57 338 0.0 0.0 0.00 0.00 0.00 44 1013.0
20260504110620 60 180 0.0 0.0 0.00 0.00 0.00 37 1011.0
20260504081619 66 330 0.0 1.0 0.00 0.00 0.00 24 1010.0
20260504080619 67 334 3.0 2.0 0.00 0.04 0.00 12 1010.0
20260504050620 73 325 3.0 8.0 0.00 0.33 0.00 3 1009.0
20260504045620 73 289 1.0 2.0 0.00 0.37 0.00 3 1009.0
20260504044620 73 324 2.0 3.0 0.00 0.37 0.00 3 1010.0
20260504043619 73 318 6.0 18.0 0.00 0.41 0.00 2 1010.0
20260504042619 74 321 3.0 8.0 0.00 0.41 0.00 2 1010.0
20260504041619 74 315 5.0 10.0 0.00 0.41 0.00 2 1010.0
20260504040619 75 315 8.0 9.0 0.00 0.41 0.00 2 1009.0
20260504035620 75 315 5.0 5.0 0.00 0.45 0.00 2 1009.0
20260504034620 75 336 1.0 1.0 0.00 0.45 0.00 2 1009.0
20260504033620 75 315 7.0 6.0 0.00 0.49 0.00 2 1009.0
20260504032620 76 355 6.0 5.0 0.00 0.49 0.00 2 1009.0
20260504031619 75 315 3.0 8.0 0.00 0.49 0.00 2 1009.0
20260504030620 74 313 5.0 9.0 0.00 0.49 0.00 2 1009.0
20260504025620 76 315 3.0 8.0 0.00 0.49 0.00 2 1009.0
20260504024620 76 298 2.0 3.0 0.00 0.49 0.00 2 1009.0
20260504023620 75 289 2.0 2.0 0.00 0.49 0.00 2 1009.0
20260504022620 75 324 5.0 6.0 0.00 0.49 0.00 2 1009.0
20260504021619 75 337 3.0 7.0 0.00 0.49 0.00 2 1009.0
20260504020619 74 340 5.0 8.0 0.00 0.54 0.00 2 1010.0
20260504015619 74 329 3.0 9.0 0.00 0.54 0.00 2 1010.0